Regional Weather Roundup
Issued by NWS Upton, NY

Current Version | Previous Version | Text Only | Print | Product List | Glossary On
Versions: 1 2 3 4 5 6 7 8 9 10 11 12 13 14 15 16 17 18 19 20 21 22 23 24 25 26 27 28 29 30 31 32 33 34 35 36 37 38 39 40 41 42 43 44 45 46 47 48 49 50
000
ASUS41 KOKX 101308
RWROKX

REGIONAL WEATHER ROUNDUP
NATIONAL WEATHER SERVICE NEW YORK NY
800 AM EST SAT DEC 10 2016

NOTE: "FAIR" INDICATES FEW OR NO CLOUDS BELOW 12,000 FEET WITH NO
SIGNIFICANT WEATHER AND/OR OBSTRUCTIONS TO VISIBILITY.

NYZ071-072-176-178-NJZ106-104-101400-
NEW YORK CITY METRO AREA

CITY           SKY/WX    TMP DP  RH WIND       PRES   REMARKS
Central Park   CLEAR     29  15  56 VRB3      30.40R
Wall St Helipt MOSUNNY   31  24  75 W7        30.40S WCI  24
Bronx Bot Gard NOT AVBL
LaGuardia APRT PTCLDY    32  16  51 W12       30.39R WCI  23
Kennedy INTL   PTCLDY    31  17  56 W9        30.40R WCI  23
Breezy Point     N/A    N/A N/A N/A W13G21      N/A
Newark/Liberty MOCLDY    28  21  75 SW7       30.39S WCI  21
Teterboro      PTCLDY    28  15  58 SW6       30.38R WCI  22
$$

NYZ177-179-078>081-101400-
LONG ISLAND NEW YORK

CITY           SKY/WX    TMP DP  RH WIND       PRES   REMARKS
Jones Beach      N/A    N/A N/A N/A NW12        N/A
Matinecock PT  NOT AVBL
Farmingdale    CLEAR     29  16  58 NW10G18   30.38R WCI  20
MacArthur/ISP  PTCLDY    27  18  69 W8        30.36R WCI  19
Shirley        PTCLDY    24  18  77 W5        30.37R WCI  18
Westhampton    NOT AVBL
Southampton    NOT AVBL
Bridgehampton  NOT AVBL
East Hampton     N/A     27  14  56 NW7       30.35R WCI  20
Montauk          N/A     28  13  53 NW14G22   30.35R WCI  17
$$

NYZ052-065-067-101400-
HUDSON VALLEY

CITY           SKY/WX    TMP DP  RH WIND       PRES   REMARKS
White Plains   PTCLDY    26  16  65 W6        30.34R WCI  19
Newburgh       MOCLDY    23  18  80 W8        30.35R WCI  14
Montgomery     CLOUDY    22  17  81 SW6       30.35R WCI  14
Poughkeepsie   MOCLDY    18  14  84 CALM      30.36R
Albany         PTCLDY    18  11  74 NW5       30.36R WCI  11
$$

NJZ001-105-106-008-010-013-015-019>022-104-101400-
NEW JERSEY

CITY           SKY/WX    TMP DP  RH WIND       PRES   REMARKS
Newark/Liberty MOCLDY    28  21  75 SW7       30.39S WCI  21
Teterboro      PTCLDY    28  15  58 SW6       30.38R WCI  22
Caldwell       CLEAR     26  16  65 CALM      30.39R
Somerville     PTCLDY    26  20  77 CALM      30.38R
Linden           N/A     28  22  78 W5        30.40S WCI  22
Sussex         MOCLDY    20  16  84 CALM      30.35R
Andover          N/A     21  17  84 CALM      30.36R
Trenton        PTCLDY    28  18  66 W7        30.41R WCI  21
Millville      CLEAR     28  19  69 W9        30.46R WCI  19
Atlantic City  CLEAR     26  17  68 W8        30.45R WCI  18
Wrightstown    PTCLDY    28  19  68 W7        30.40R WCI  21
Toms River     PTCLDY    24  20  84 SW5       30.43R WCI  18
Belmar         CLEAR     27  23  85 W7        30.42R WCI  19
$$

PAZ047>061-062-071-101400-
EASTERN PENNSYLVANIA

CITY           SKY/WX    TMP DP  RH WIND       PRES   REMARKS
Philadelphia   MOCLDY    29  17  61 W9        30.46R WCI  20
Allentown      CLOUDY    28  19  69 SW7       30.39R WCI  21
Scranton       CLOUDY    26  22  84 SW7       30.32S WCI  18
$$

CTZ002-004>006-009-010-012-RIZ004-006-007-MAZ004-011-015-101400-
SOUTHERN NEW ENGLAND
 IN CT

CITY           SKY/WX    TMP DP  RH WIND       PRES   REMARKS
Bradley INTL   MOCLDY    20  11  68 SW5       30.33R WCI  13
Hartford       PTCLDY    24  11  57 MISG      30.35R
Danbury        PTCLDY    19  14  81 CALM      30.35R
Wtrbury/Oxford CLEAR    N/A N/A N/A NW3       30.32R
Bridgeport     CLEAR     25  14  63 W7        30.37R WCI  17
Meriden        PTCLDY    20  13  74 CALM      30.35R
New Haven      CLEAR     25  13  60 W8        30.37R WCI  16
Chester          N/A     21  10  63 W3        30.32R
Groton         CLEAR     27   9  46 NW9       30.34R WCI  18
Wilimantic     CLEAR     23   9  55 W7        30.33R WCI  15

 IN RI

CITY           SKY/WX    TMP DP  RH WIND       PRES   REMARKS
Providence     PTCLDY    21  10  62 W6        30.32R WCI  13
Block Island   CLEAR     25  11  55 NW13G23   30.34R WCI  14
Westerly       CLEAR     24   9  52 W3        30.34R
 IN MA

CITY           SKY/WX    TMP DP  RH WIND       PRES   REMARKS
Boston         PTCLDY    22   8  55 W12G21    30.30R WCI  10
Worcester      CLEAR     16   3  56 NW8       30.24R WCI   5
Westfield      CLEAR     21  11  65 W7        30.31R WCI  12
Provincetown   MOCLDY    25  13  60 NW18G25   30.27R WCI  11
Nantucket      CLEAR     25   9  50 NW14      30.29R WCI  13
$$

ANZ330-335-338-340-345-350-353-355-101400-
COASTAL MARINE OBSERVATIONS


STATION/POSITION TIME  SKY/WX   TEMP    WIND        PRES    VSBY  WAVE
                                AIR SEA DIR/SP/G                  HT/PER
                 (UTC)          (F)     (DEG/KT/KT) (MB)    (MI)  (FT/S)
NY HARB ENTRANCE 1150            33 51  280/ 17/ 23 1028.5          3/ 4
20 S FIRE ISLAND 1150            34 52  300/ 19/ 25 1027.7          4/ 5
GREAT SOUTH BAY  1230            29 40                N/A
23 SSW MONTAUK P 1150            32 54  290/ 17/ 21 1027.2          3/ 4
15 E BARNEGAT LI 1230               51                N/A           4/ 4
HUDSON CANYON    1150            37 56              1027.6          7/ 6
KINGS POINT      1248            30 45              1028.8
EXECUTION ROCKS  1245            31     280/ 10/ 16   N/A
CENTRAL LI SOUND 1245            29 49  310/ 14/ 17   N/A           2/ 4
EASTERN LI SOUND NOT AVBL
ROBBINS REEF     1248            29     250/ 10/ 11 1029.3
$$


>>>>>>>>>>>>>>>>>>>>>>>>>>>> KEY <<<<<<<<<<<<<<<<<<<<<<<<<<<
>                                                          <
>     SKY/WX - Sky Condition/Present Weather               <
>     TMP    - Temperature in Fahrenheit                   <
>     DP     - Dew Point in Fahrenheit                     <
>     RH     - Relative Humidity in Percent                <
>     WIND   - Direction (from) and Speed in MPH           <
>     PRES   - Mean Sea Level Pressure (inches of Hg)      <
>     WCI    - Wind Chill Index                            <
>     VSB    - VISIBILITY IN MILES                         <
>     HX     - HEAT INDEX                                  <
>     TC     - TEMPERATURE IN CELSIUS                      <
>     VRB    - VARIABLE WIND DIRECTION                     <
>                                                          <
>>>>>>>>>>>>>>>>>>>>>>>>>>>> KEY <<<<<<<<<<<<<<<<<<<<<<<<<<<



USA.gov is the U.S. government's official web portal to all federal, state and local government web resources and services.